SCP
0 0 0 0 0 0 0 0 0 0 0 0 0 0 0 0 0 0 0 0 0 0 0 0 0 -0 0 0 0 -0 -0 0 -0 -0 -0 0 0 0 0 0 0 0 0 0 0 0 0 -0 0 0 0 0 0 0
0 0 0 0 0 0 0 0 0 0 0 0 0 0 0 0 0 0 0 0 0 0 0 0 -0 -0 -0 0 0 0 0 0 -0 -0 -0 0 0 0 0 0 -0 0 0 0 0 0 0 0 0 0 0 0 0 0
0 0 0 0 0 0 0 0 0 0 0 0 0 0 0 0 0 0 0 0 0 0 0 -0 0 -0 0 0 0 0 0 -0 0 -0 -0 0 0 0 0 0 0 0 -0 0 0 0 0 0 0 0 0 0 0 0
0 0 0 0 0 0 0 0 0 0 0 0 0 0 0 0 0 0 0 0 0 0 0 -0 -0 0 0 -0 0 0 0 -0 -0 -0 0 0 0 0 0 0 0 0 0 0 0 0 0 0 0 0 0 0 0 0
0 0 0 0 0 0 0 0 0 0 -0 -0 -0 -0 -0 -0 0 0 0 0 0 0 0 -0 -0 0 0 -0 0 0 0 -0 -0 0 0 0 0 0 0 0 0 0 0 0 0 0 0 0 0 0 0 0 0 0
0 0 0 0 0 0 0 0 0 -0 -0 -0 -0 -0 -0 -0 0 0 0 0 0 0 0 -0 -0 0 0 0 0 0 0 -0 -0 -0 0 0 0 0 0 0 0 0 0 0 0 0 0 0 0 0 0 0 0 0
0 0 0 0 0 0 0 0 -0 -0 -0 -0 -0 -0 -0 -0 0 0 0 0 0 0 0 -0 -0 -0 0 0 -0 0 0 -0 -0 -0 0 0 0 0 0 0 0 0 0 0 0 0 0 0 0 0 -0 0 0 0
0 0 0 0 0 0 0 -0 -0 -0 -0 -0 -0 -0 -0 0 0 0 0 0 0 0 0 -0 -0 -0 0 -0 0 -0 0 -0 0 0 0 0 0 0 0 0 0 0 0 -0 -0 0 0 0 0 0 0 -0 0 0
0 0 0 0 0 0 0 -0 -0 -0 -0 0 -0 -0 0 0 0 0 0 0 0 0 0 0 -0 -0 -0 -0 0 0 0 0 0 -0 0 0 -0 0 0 0 0 0 0 0 0 0 0 0 0 -0 -0 -0 0 0
0 0 0 0 0 0 0 0 0 -0 -0 -0 -0 0 0 0 0 0 0 0 0 0 0 0 -0 0 0 -0 -0 -0 -0 -0 -0 -0 -0 0 0 0 0 0 0 0 0 -0 -0 -0 -0 -0 -0 0 0 0 0 0
0 0 0 0 0 0 0 0 0 0 -0 0 0 0 0 0 0 0 0 0 0 0 0 -0 -0 -0 -0 -0 -0 0 0 0 0 0 -0 0 0 0 0 0 0 0 0 0 0 0 -0 -0 0 0 -0 -0 -0 -0
0 0 0 0 0 0 0 0 0 0 0 0 0 0 0 0 0 0 0 0 0 0 0 -0 0 -0 -0 -0 0 0 0 0 0 -0 0 0 -0 -0 0 0 0 0 0 0 -0 -0 -0 0 0 -0 -0 -0 -0 -0
0 0 0 0 0 0 0 0 0 0 0 0 0 0 0 0 0 0 0 0 0 0 0 -0 -0 -0 -0 -0 0 0 0 0 0 0 0 -0 -0 -0 0 -0 -0 -0 0 -0 -0 -0 -0 -0 -0 -0 -0 -0 -0 0
0 0 0 0 -0 0 0 0 0 0 0 0 0 0 0 0 0 0 0 0 0 0 -0 -0 -0 -0 0 0 0 0 0 0 0 0 0 0 -0 -0 0 0 0 -0 -0 -0 -0 -0 -0 -0 -0 -0 0 0 0 0
0 0 0 0 0 0 0 0 0 0 0 0 0 0 0 0 0 0 0 0 0 0 -0 -0 -0 0 0 0 0 0 0 0 0 0 0 0 -0 -0 -0 -0 -0 -0 -0 -0 -0 -0 -0 -0 -0 0 0 0 0 0
0 0 0 0 0 0 0 0 0 0 0 0 0 0 0 0 0 0 0 0 0 0 0 0 0 0 0 0 0 0 0 0 0 0 0 -0 -0 0 0 0 0 0 -0 -0 -0 -0 -0 0 0 0 0 0 0 0
0 0 0 0 0 0 -0 0 0 0 0 0 0 0 -0 0 0 0 0 0 0 0 0 0 0 0 0 0 0 0 0 0 0 0 0 -0 -0 0 0 0 0 -0 -0 -0 -0 0 0 0 0 0 0 0 0 0
0 0 0 0 0 0 0 0 0 0 0 0 0 0 0 0 0 0 0 0 0 0 0 0 0 0 0 0 0 0 0 0 0 0 0 0 0 -0 -0 -0 -0 -0 -0 0 0 0 0 0 0 0 0 -0 -0 -0
0 0 0 0 0 0 0 0 0 0 0 0 0 0 0 0 0 0 0 0 0 0 0 0 0 0 0 0 0 0 0 0 0 0 0 0 -0 -0 -0 -0 -0 -0 -0 0 0 0 0 0 0 0 -0 -0 -0 -0
0 0 0 0 0 0 0 0 0 0 0 0 0 -0 0 -0 0 0 0 0 0 0 0 0 -0 0 0 0 0 0 0 0 0 0 0 0 0 -0 -0 0 0 0 0 0 0 0 0 0 -0 -0 0 0 -0 -0
0 0 0 0 0 0 0 0 0 0 0 0 0 0 -0 0 0 0 0 0 0 0 -0 0 0 0 0 0 0 0 0 0 0 0 0 0 0 0 0 0 0 0 0 0 0 0 -0 0 0 0 0 0 -0 -0
0 0 0 0 0 0 0 0 0 0 0 0 0 0 -0 0 -0 0 0 0 0 0 0 0 0 0 0 0 0 0 0 0 0 0 0 0 0 0 0 0 0 0 0 0 -0 0 -0 0 0 0 -0 -0 -0 -0
0 0 0 0 0 0 0 0 0 0 0 0 0 0 0 0 0 0 0 0 0 0 0 0 0 0 0 0 -0 -0 0 0 0 0 0 0 0 0 0 0 0 0 0 0 -0 0 0 0 0 -0 -0 -0 -0 -0
0 0 -0 0 0 0 0 0 0 0 0 0 0 0 0 0 0 0 0 0 0 0 0 0 0 0 0 0 -0 0 0 0 0 0 0 0 0 0 -0 0 0 0 0 0 0 0 0 -0 0 -0 -0 -0 -0 -0
0 0 0 0 0 0 0 0 0 0 0 0 0 0 0 0 0 0 0 0 0 0 0 0 0 0 0 0 0 -0 0 -0 0 0 0 0 0 0 0 0 0 0 0 0 0 0 0 0 -0 0 0 0 -0 -0
0 0 0 0 0 0 0 0 0 0 0 0 0 0 0 0 0 0 0 0 0 0 0 0 0 0 0 0 0 0 -0 0 0 0 0 0 0 0 0 0 0 0 0 0 0 0 0 0 0 0 0 0 0 -0
0 0 0 0 0 0 0 0 0 0 0 0 0 0 0 0 0 0 0 0 0 0 0 0 -0 -0 -0 -0 -0 -0 0 0 0 0 0 0 0 0 0 0 -0 -0 0 0 0 0 0 0 0 0 0 0 0 0
0 0 0 0 0 -0 -0 -0 -0 -0 -0 0 0 0 0 0 0 0 0 0 0 0 0 -0 -0 0 -0 -0 -0 -0 -0 0 0 0 0 0 0 0 0 0 0 0 0 0 0 0 0 0 0 0 0 0 0 0
0 0 0 0 -0 -0 -0 -0 -0 0 0 0 0 0 0 0 0 0 0 0 0 0 0 0 -0 -0 -0 -0 -0 -0 -0 -0 -0 0 0 0 0 0 0 0 0 0 0 0 0 0 0 0 0 0 0 0 0 0
0 0 0 -0 -0 -0 -0 0 0 0 0 0 0 0 0 0 0 0 0 0 0 0 0 0 0 -0 -0 -0 -0 -0 -0 -0 -0 0 0 0 -0 0 0 0 0 0 0 0 0 0 0 0 0 0 0 0 0 0
0 -0 0 0 0 0 0 0 0 0 0 0 0 0 0 0 0 0 0 0 0 0 0 0 0 0 0 -0 -0 -0 -0 -0 -0 -0 -0 0 0 0 0 0 0 0 0 0 0 0 0 0 0 0 0 0 0 0
-0 -0 0 0 0 0 0 0 0 0 0 0 0 0 0 0 0 0 0 0 0 0 0 0 0 0 0 0 -0 0 -0 -0 -0 0 0 0 0 0 0 0 0 0 0 0 0 0 0 0 0 0 0 0 0 0
0 0 0 0 0 0 0 0 0 0 0 0 0 0 0 0 0 0 0 0 0 0 0 0 0 0 0 0 0 -0 -0 -0 0 0 -0 0 -0 -0 -0 0 0 0 0 0 0 0 0 0 0 0 0 0 0 0
Wind_Speed_500mb
51 44 39 38 36 37 39 39 41 40 39 38 35 31 31 30 25 26 25 21 21 17 54 21 23 47 50 41 14 53 22 9 10 18 12 10 7 11 9 8 13 13 14 12 9 11 11 49 13 9 4 59 59 58
55 48 43 41 38 39 37 37 37 38 39 37 33 29 28 29 30 27 18 27 34 31 56 60 35 31 29 35 39 16 12 18 8 6 6 7 6 7 14 8 22 10 13 7 13 8 19 36 20 24 36 54 54 54
54 53 49 43 39 38 37 36 37 38 39 38 35 29 28 30 32 29 25 22 26 27 45 26 4 28 18 26 21 7 10 10 10 11 6 4 5 8 10 10 9 22 39 8 4 16 24 45 56 57 52 55 54 51
55 57 51 45 37 35 35 39 38 37 38 38 36 29 28 31 31 25 21 16 17 20 8 16 24 23 23 26 13 30 36 35 32 14 5 3 5 17 8 12 14 13 22 13 9 7 21 46 43 44 56 60 62 60
58 62 57 44 39 35 37 43 42 39 38 35 36 30 30 29 23 20 19 8 5 11 11 30 39 16 27 25 15 21 16 15 11 7 7 6 8 5 7 9 13 25 10 6 6 18 27 19 33 38 56 60 59 69
57 54 51 44 36 35 42 40 40 38 36 34 34 31 30 23 17 9 7 4 10 19 11 9 24 16 29 17 12 22 30 23 27 8 10 12 18 3 8 7 28 36 30 7 13 52 58 53 51 50 63 57 56 57
49 47 44 36 30 38 36 39 38 36 32 33 31 29 20 14 7 7 8 2 15 20 6 12 12 18 32 14 11 9 29 35 26 10 12 13 30 16 9 9 26 16 32 40 45 45 45 39 47 54 57 60 55 51
39 36 31 28 30 33 35 36 35 32 29 29 27 19 10 3 5 6 12 13 12 8 9 6 11 16 30 23 11 11 11 26 35 14 24 28 14 18 11 9 19 34 42 48 46 46 47 45 45 43 43 45 47 45
34 29 27 25 27 30 32 34 31 27 27 25 17 9 2 2 5 8 21 10 7 7 9 7 8 11 26 26 15 12 7 6 12 17 15 15 14 12 8 27 29 29 34 35 33 37 39 40 39 39 39 38 40 37
28 28 26 22 27 24 27 30 24 21 21 13 7 4 9 6 12 13 5 5 6 7 10 6 23 15 28 30 12 11 14 6 5 8 17 9 12 17 18 18 24 25 29 31 34 34 34 38 36 34 33 31 32 32
29 28 24 23 23 20 21 21 18 17 14 10 6 6 8 12 3 8 9 9 7 5 4 12 20 19 18 13 13 12 6 4 5 8 7 6 5 1 3 11 17 19 24 27 29 31 30 32 33 34 33 31 30 29
27 27 23 21 19 19 18 16 12 8 9 11 14 17 6 7 11 7 7 5 6 5 5 16 24 23 14 11 6 11 4 8 7 9 7 6 12 25 15 16 19 21 26 30 29 30 29 29 29 30 31 30 29 29
28 23 18 17 19 19 16 14 11 13 8 5 5 4 8 6 2 11 11 6 2 4 6 18 13 14 8 8 10 4 6 4 5 5 6 8 38 33 30 26 24 24 26 29 30 30 30 29 26 26 29 28 27 27
26 19 16 19 20 17 14 11 9 6 0 4 7 4 9 10 10 4 6 9 12 12 17 18 17 6 11 5 5 6 5 5 4 4 5 19 45 41 35 30 28 26 26 28 28 27 27 27 27 26 25 26 27 26
24 18 20 20 16 10 9 8 8 4 3 8 7 7 12 6 4 4 6 6 7 12 19 18 12 9 6 6 4 6 5 3 4 5 10 38 44 38 36 31 28 26 25 24 24 25 25 23 24 25 24 24 26 26
22 19 22 15 10 9 8 7 5 8 5 8 11 14 11 10 14 4 4 5 4 6 9 7 8 5 5 4 6 2 2 3 3 9 38 43 42 37 35 31 26 23 23 23 23 22 21 21 21 23 24 23 24 24
21 11 14 9 7 5 7 9 9 8 8 8 13 20 18 8 9 11 13 3 7 10 6 7 7 4 2 5 2 4 4 2 23 33 38 39 38 37 35 31 28 25 24 23 23 22 23 24 23 22 23 23 23 21
13 16 14 7 6 6 9 12 8 9 13 20 14 19 20 11 9 7 6 8 8 5 10 4 8 7 4 1 2 4 7 6 20 38 32 33 33 36 38 37 33 27 25 24 23 24 23 21 20 20 21 23 22 21
19 20 13 9 14 10 8 11 10 10 15 16 17 17 15 14 14 10 7 6 2 5 8 8 6 4 4 4 4 8 13 17 28 34 37 40 38 40 42 39 35 29 26 24 24 20 19 14 16 17 17 18 17 18
13 12 10 13 15 6 7 8 10 10 11 7 14 21 20 18 12 14 10 9 7 6 7 6 4 4 6 5 8 11 12 21 30 35 33 37 42 44 42 41 38 31 25 21 19 19 17 16 15 14 15 16 18 17
9 10 11 14 9 9 6 7 10 10 14 15 12 15 17 20 22 18 12 15 7 7 8 15 10 6 2 5 8 14 21 28 29 36 39 41 39 35 33 32 33 25 23 21 17 18 16 14 15 14 15 15 15 17
12 13 8 8 7 9 10 15 10 4 11 16 13 19 17 20 23 22 18 16 9 11 15 11 9 7 12 8 8 14 23 25 29 30 39 42 40 40 35 36 35 30 27 24 20 17 14 14 16 17 17 15 17 15
11 13 7 9 8 12 11 14 12 13 7 6 10 9 14 15 16 23 11 16 11 13 13 12 12 9 19 16 18 20 21 30 29 33 39 40 37 34 38 34 31 28 25 19 17 15 15 15 19 20 20 17 18 16
18 10 9 9 14 8 8 9 10 10 10 14 7 17 10 7 15 11 8 9 16 18 20 19 20 22 22 20 23 26 24 23 25 27 28 28 29 27 30 29 25 22 20 22 19 17 13 14 19 22 21 21 19 18
6 8 8 9 11 7 9 12 16 9 12 15 13 12 7 15 9 8 8 13 22 22 25 25 23 25 23 19 19 20 21 23 27 27 26 27 26 24 22 22 21 21 23 23 21 19 18 16 18 19 20 21 21 20
6 13 11 15 13 10 10 8 14 15 8 10 14 10 10 7 10 8 6 12 20 29 26 28 29 26 24 21 21 19 17 15 24 27 25 24 23 23 26 28 26 23 22 22 22 22 21 19 19 19 19 20 26 21
6 10 13 16 12 9 12 13 8 10 13 11 8 10 8 8 8 6 9 11 17 26 27 24 23 30 26 26 22 22 22 18 18 16 22 21 22 23 25 25 25 21 25 24 22 22 23 24 22 22 20 18 18 20
11 7 10 16 19 14 7 7 7 11 13 10 6 8 6 3 5 7 12 14 20 27 22 20 20 17 20 23 24 24 25 18 20 17 24 22 22 21 17 15 14 19 14 18 22 25 26 27 26 25 24 21 18 18
10 9 11 13 13 11 11 10 8 7 5 5 4 3 5 8 15 16 17 17 18 19 21 20 20 18 20 20 20 22 24 26 30 30 29 26 24 23 20 18 15 14 14 13 24 23 25 25 26 24 23 20 17 17
10 19 10 8 11 11 22 10 5 3 4 8 6 4 15 13 14 14 13 15 19 15 18 19 20 20 20 22 23 24 24 29 28 29 32 28 25 23 24 24 22 20 19 18 18 26 33 29 28 25 20 17 15 15
3 15 9 12 12 24 24 14 11 11 8 5 9 7 12 14 11 6 6 5 6 10 13 16 21 24 26 25 25 27 28 29 31 28 25 22 18 21 23 24 24 24 23 22 21 21 25 27 25 24 22 20 18 17
15 16 14 8 15 16 12 11 11 10 4 4 5 9 11 11 12 9 6 6 10 11 10 12 11 14 18 27 31 31 28 27 31 32 28 22 13 16 19 23 24 25 26 26 25 23 26 26 24 23 23 22 21 20
19 15 17 13 10 8 9 8 9 4 4 5 4 8 3 1 4 4 0 4 4 4 3 3 3 8 15 17 26 28 24 23 27 33 33 30 26 21 20 22 22 24 27 28 26 25 27 28 29 28 30 29 31 31
Wind_Direction_500mb
304 299 295 299 306 311 317 326 331 330 328 332 336 338 340 341 341 338 320 309 292 281 297 277 299 299 309 313 315 309 326 27 326 3 0 352 339 358 344 30 0 5 323 28 19 99 76 344 358 25 257 131 131 133
300 296 288 293 298 303 313 322 327 327 324 327 329 329 330 333 332 332 317 314 309 278 282 296 292 288 277 307 310 312 283 299 323 325 359 311 334 337 338 19 10 37 2 30 32 63 345 342 1 93 113 118 133 127
296 293 286 289 290 298 309 318 327 324 320 320 321 323 326 328 324 319 307 310 319 297 320 301 197 346 316 312 295 247 275 288 289 286 296 303 322 342 0 27 357 1 13 75 178 18 18 25 47 74 88 97 111 117
292 289 284 279 283 297 308 319 321 317 315 314 315 318 324 324 319 315 301 285 312 305 288 303 328 334 340 350 311 288 306 330 310 297 246 305 347 12 38 47 41 357 308 45 77 101 61 33 51 71 80 91 100 105
293 291 285 272 281 288 300 311 317 317 312 308 313 318 322 319 322 318 303 297 304 324 300 300 310 354 347 350 357 345 303 338 10 11 30 23 3 1 92 57 27 347 330 333 69 48 93 59 78 89 95 97 102 113
288 285 282 276 278 293 303 303 308 313 308 312 315 319 320 315 326 335 266 192 277 323 309 309 321 306 350 343 6 18 34 50 43 52 40 31 1 347 58 61 2 21 65 77 91 98 97 98 101 99 96 99 101 102
282 279 284 285 275 286 289 304 308 306 308 311 316 317 313 307 297 259 333 235 313 305 276 288 273 13 353 340 9 44 36 42 37 42 48 51 46 69 52 54 353 48 66 86 92 93 82 91 97 94 96 99 98 100
280 275 278 267 276 281 301 302 305 304 308 313 318 318 308 306 53 264 281 308 310 267 257 271 305 328 12 340 350 21 82 56 26 34 49 35 41 74 65 47 55 68 78 78 82 85 91 99 99 99 100 104 102 99
262 265 258 261 267 294 298 306 308 310 315 320 318 318 231 152 221 235 283 285 267 245 291 302 315 340 323 338 314 317 101 87 97 51 42 40 28 48 84 67 71 88 93 105 100 105 100 100 102 103 103 102 100 99
243 241 240 246 274 290 301 308 315 320 321 335 11 283 216 191 269 285 313 224 226 228 247 276 297 317 347 333 318 351 326 127 125 98 105 66 44 45 60 69 78 88 99 105 110 109 110 109 107 105 103 106 107 110
227 227 225 250 266 286 302 308 318 333 18 0 288 272 296 278 292 228 230 205 240 252 256 291 334 306 327 334 330 340 303 334 107 152 118 105 112 166 49 38 71 74 83 88 96 102 107 109 110 109 107 107 108 111
216 211 233 256 277 284 300 302 307 353 311 300 278 288 266 228 227 217 235 213 206 232 353 322 316 342 314 322 279 302 300 4 70 111 111 90 144 169 169 133 111 99 97 97 99 103 104 105 108 110 110 109 110 111
203 219 237 255 272 283 300 291 292 313 319 356 300 270 221 226 315 222 195 215 233 228 331 324 318 312 284 252 292 293 2 11 69 45 77 123 149 157 148 138 122 110 104 103 105 107 109 108 109 111 111 112 114 113
209 223 238 263 272 288 286 255 267 306 259 246 231 278 231 195 235 239 358 11 19 328 309 311 308 288 304 282 295 304 352 66 95 122 96 148 156 155 154 142 130 118 112 109 108 109 109 109 110 112 114 117 119 120
204 218 255 266 278 272 237 244 258 226 153 251 227 244 218 283 334 332 330 348 327 283 301 302 279 260 276 297 273 0 299 167 29 104 138 158 151 154 152 150 135 127 118 110 110 109 109 112 114 113 116 120 122 122
196 238 259 243 243 239 238 235 224 162 233 246 240 246 220 243 199 113 281 279 291 292 282 265 268 259 240 266 257 206 26 2 134 114 152 157 151 152 154 149 141 131 122 117 114 112 114 113 116 115 118 122 128 128
214 221 235 250 258 230 215 161 188 218 237 236 243 237 271 283 166 186 260 255 280 280 249 233 251 227 328 270 223 48 117 99 119 140 149 156 156 155 150 146 145 135 127 123 119 119 119 119 120 121 124 131 132 129
167 248 242 257 201 220 174 176 226 236 239 242 246 247 229 229 222 236 263 280 282 250 262 263 280 239 211 188 269 142 111 140 140 157 160 155 151 158 157 155 152 143 136 134 131 128 127 124 124 127 129 134 137 137
185 208 245 203 189 171 201 211 221 255 242 258 248 240 236 230 247 252 242 204 195 198 283 267 256 247 220 203 162 139 136 150 154 151 158 158 157 157 156 155 153 147 146 145 139 136 136 135 128 131 136 140 145 149
198 218 199 187 185 164 218 217 211 250 265 251 245 251 224 231 238 230 219 191 183 168 246 240 237 45 319 277 176 187 148 164 162 156 152 153 156 154 157 161 160 153 156 152 153 150 144 140 140 139 149 153 151 154
180 192 177 180 194 216 236 249 231 242 277 265 249 239 249 224 224 232 201 187 187 192 247 248 285 270 265 136 178 201 201 174 176 167 159 158 159 161 162 160 161 166 169 169 172 168 176 168 166 167 150 148 150 146
220 194 170 193 205 206 249 230 241 286 258 255 265 232 246 218 224 208 188 200 239 216 221 224 219 141 116 113 122 157 171 159 156 146 163 160 158 165 165 169 173 182 188 182 192 177 185 176 178 179 168 165 152 161
179 160 174 189 216 213 256 211 223 226 235 287 251 251 233 214 198 183 206 218 203 203 191 176 158 134 130 127 124 128 145 166 150 154 159 163 167 171 171 179 184 191 188 182 193 173 169 183 188 178 180 172 169 178
163 175 198 201 208 240 224 212 226 238 250 219 239 237 233 207 197 222 234 187 164 175 170 157 157 146 146 150 144 138 137 139 152 164 169 174 171 177 186 187 188 191 186 186 182 180 183 172 180 178 185 183 185 189
188 210 193 232 212 235 226 210 199 217 226 206 223 242 208 189 200 235 208 166 164 171 165 172 170 166 163 157 146 144 157 160 161 166 172 171 170 172 179 187 183 182 185 180 182 183 180 185 176 183 188 191 196 199
216 205 193 199 185 206 227 215 201 208 221 205 231 235 195 216 218 220 165 142 155 160 177 180 175 175 178 172 162 159 170 169 168 171 178 182 180 181 180 179 177 180 189 191 192 194 195 195 193 191 191 197 201 199
238 215 214 213 224 233 258 240 229 196 201 222 238 215 207 220 212 100 139 136 155 172 175 177 185 183 186 185 178 175 176 169 181 176 181 181 179 181 183 186 194 204 201 205 210 210 209 207 204 202 201 205 210 209
243 286 217 216 216 255 253 275 248 215 205 213 213 223 209 262 99 113 135 142 148 159 160 169 176 179 176 171 175 177 178 185 184 177 170 176 180 183 183 186 202 204 193 212 218 217 213 210 208 207 208 212 219 229
222 223 244 227 217 243 234 237 247 226 228 252 252 212 118 94 116 126 132 141 146 151 157 161 165 162 157 167 178 184 186 184 180 179 179 181 187 195 196 199 199 186 193 200 193 190 201 201 202 204 207 213 224 234
220 181 185 232 223 234 236 232 270 285 259 227 230 186 104 120 116 123 126 132 137 154 180 176 180 185 184 184 181 184 189 187 188 188 197 203 207 205 196 199 198 196 191 183 180 195 200 192 194 192 194 207 217 223
232 192 214 220 230 240 252 257 266 270 263 240 235 206 147 155 155 156 142 130 148 166 180 188 194 200 199 199 196 193 198 201 202 205 211 218 218 191 196 201 199 197 198 191 190 183 182 186 192 201 209 215 223 226
197 202 227 248 239 230 226 236 238 240 250 188 177 163 183 174 156 156 165 219 222 222 225 224 222 220 225 210 214 215 217 211 208 210 210 205 202 199 197 194 196 198 197 196 198 194 195 197 204 211 216 220 227 231
204 217 231 270 260 219 205 224 213 208 146 145 138 179 194 133 118 126 69 172 173 150 182 220 214 233 221 205 204 206 207 204 209 204 205 205 207 197 192 189 190 193 193 195 201 204 207 211 215 214 219 219 221 229
Wind_Speed_850mb
51 44 39 38 36 37 39 39 41 40 39 38 35 31 31 30 25 26 25 21 21 17 54 21 23 47 50 41 14 53 22 9 10 18 12 10 7 11 9 8 13 13 14 12 9 11 11 49 13 9 4 59 59 58
55 48 43 41 38 39 37 37 37 38 39 37 33 29 28 29 30 27 18 27 34 31 56 60 35 31 29 35 39 16 12 18 8 6 6 7 6 7 14 8 22 10 13 7 13 8 19 36 20 24 36 54 54 54
54 53 49 43 39 38 37 36 37 38 39 38 35 29 28 30 32 29 25 22 26 27 45 26 4 28 18 26 21 7 10 10 10 11 6 4 5 8 10 10 9 22 39 8 4 16 24 45 56 57 52 55 54 51
55 57 51 45 37 35 35 39 38 37 38 38 36 29 28 31 31 25 21 16 17 20 8 16 24 23 23 26 13 30 36 35 32 14 5 3 5 17 8 12 14 13 22 13 9 7 21 46 43 44 56 60 62 60
58 62 57 44 39 35 37 43 42 39 38 35 36 30 30 29 23 20 19 8 5 11 11 30 39 16 27 25 15 21 16 15 11 7 7 6 8 5 7 9 13 25 10 6 6 18 27 19 33 38 56 60 59 69
57 54 51 44 36 35 42 40 40 38 36 34 34 31 30 23 17 9 7 4 10 19 11 9 24 16 29 17 12 22 30 23 27 8 10 12 18 3 8 7 28 36 30 7 13 52 58 53 51 50 63 57 56 57
49 47 44 36 30 38 36 39 38 36 32 33 31 29 20 14 7 7 8 2 15 20 6 12 12 18 32 14 11 9 29 35 26 10 12 13 30 16 9 9 26 16 32 40 45 45 45 39 47 54 57 60 55 51
39 36 31 28 30 33 35 36 35 32 29 29 27 19 10 3 5 6 12 13 12 8 9 6 11 16 30 23 11 11 11 26 35 14 24 28 14 18 11 9 19 34 42 48 46 46 47 45 45 43 43 45 47 45
34 29 27 25 27 30 32 34 31 27 27 25 17 9 2 2 5 8 21 10 7 7 9 7 8 11 26 26 15 12 7 6 12 17 15 15 14 12 8 27 29 29 34 35 33 37 39 40 39 39 39 38 40 37
28 28 26 22 27 24 27 30 24 21 21 13 7 4 9 6 12 13 5 5 6 7 10 6 23 15 28 30 12 11 14 6 5 8 17 9 12 17 18 18 24 25 29 31 34 34 34 38 36 34 33 31 32 32
29 28 24 23 23 20 21 21 18 17 14 10 6 6 8 12 3 8 9 9 7 5 4 12 20 19 18 13 13 12 6 4 5 8 7 6 5 1 3 11 17 19 24 27 29 31 30 32 33 34 33 31 30 29
27 27 23 21 19 19 18 16 12 8 9 11 14 17 6 7 11 7 7 5 6 5 5 16 24 23 14 11 6 11 4 8 7 9 7 6 12 25 15 16 19 21 26 30 29 30 29 29 29 30 31 30 29 29
28 23 18 17 19 19 16 14 11 13 8 5 5 4 8 6 2 11 11 6 2 4 6 18 13 14 8 8 10 4 6 4 5 5 6 8 38 33 30 26 24 24 26 29 30 30 30 29 26 26 29 28 27 27
26 19 16 19 20 17 14 11 9 6 0 4 7 4 9 10 10 4 6 9 12 12 17 18 17 6 11 5 5 6 5 5 4 4 5 19 45 41 35 30 28 26 26 28 28 27 27 27 27 26 25 26 27 26
24 18 20 20 16 10 9 8 8 4 3 8 7 7 12 6 4 4 6 6 7 12 19 18 12 9 6 6 4 6 5 3 4 5 10 38 44 38 36 31 28 26 25 24 24 25 25 23 24 25 24 24 26 26
22 19 22 15 10 9 8 7 5 8 5 8 11 14 11 10 14 4 4 5 4 6 9 7 8 5 5 4 6 2 2 3 3 9 38 43 42 37 35 31 26 23 23 23 23 22 21 21 21 23 24 23 24 24
21 11 14 9 7 5 7 9 9 8 8 8 13 20 18 8 9 11 13 3 7 10 6 7 7 4 2 5 2 4 4 2 23 33 38 39 38 37 35 31 28 25 24 23 23 22 23 24 23 22 23 23 23 21
13 16 14 7 6 6 9 12 8 9 13 20 14 19 20 11 9 7 6 8 8 5 10 4 8 7 4 1 2 4 7 6 20 38 32 33 33 36 38 37 33 27 25 24 23 24 23 21 20 20 21 23 22 21
19 20 13 9 14 10 8 11 10 10 15 16 17 17 15 14 14 10 7 6 2 5 8 8 6 4 4 4 4 8 13 17 28 34 37 40 38 40 42 39 35 29 26 24 24 20 19 14 16 17 17 18 17 18
13 12 10 13 15 6 7 8 10 10 11 7 14 21 20 18 12 14 10 9 7 6 7 6 4 4 6 5 8 11 12 21 30 35 33 37 42 44 42 41 38 31 25 21 19 19 17 16 15 14 15 16 18 17
9 10 11 14 9 9 6 7 10 10 14 15 12 15 17 20 22 18 12 15 7 7 8 15 10 6 2 5 8 14 21 28 29 36 39 41 39 35 33 32 33 25 23 21 17 18 16 14 15 14 15 15 15 17
12 13 8 8 7 9 10 15 10 4 11 16 13 19 17 20 23 22 18 16 9 11 15 11 9 7 12 8 8 14 23 25 29 30 39 42 40 40 35 36 35 30 27 24 20 17 14 14 16 17 17 15 17 15
11 13 7 9 8 12 11 14 12 13 7 6 10 9 14 15 16 23 11 16 11 13 13 12 12 9 19 16 18 20 21 30 29 33 39 40 37 34 38 34 31 28 25 19 17 15 15 15 19 20 20 17 18 16
18 10 9 9 14 8 8 9 10 10 10 14 7 17 10 7 15 11 8 9 16 18 20 19 20 22 22 20 23 26 24 23 25 27 28 28 29 27 30 29 25 22 20 22 19 17 13 14 19 22 21 21 19 18
6 8 8 9 11 7 9 12 16 9 12 15 13 12 7 15 9 8 8 13 22 22 25 25 23 25 23 19 19 20 21 23 27 27 26 27 26 24 22 22 21 21 23 23 21 19 18 16 18 19 20 21 21 20
6 13 11 15 13 10 10 8 14 15 8 10 14 10 10 7 10 8 6 12 20 29 26 28 29 26 24 21 21 19 17 15 24 27 25 24 23 23 26 28 26 23 22 22 22 22 21 19 19 19 19 20 26 21
6 10 13 16 12 9 12 13 8 10 13 11 8 10 8 8 8 6 9 11 17 26 27 24 23 30 26 26 22 22 22 18 18 16 22 21 22 23 25 25 25 21 25 24 22 22 23 24 22 22 20 18 18 20
11 7 10 16 19 14 7 7 7 11 13 10 6 8 6 3 5 7 12 14 20 27 22 20 20 17 20 23 24 24 25 18 20 17 24 22 22 21 17 15 14 19 14 18 22 25 26 27 26 25 24 21 18 18
10 9 11 13 13 11 11 10 8 7 5 5 4 3 5 8 15 16 17 17 18 19 21 20 20 18 20 20 20 22 24 26 30 30 29 26 24 23 20 18 15 14 14 13 24 23 25 25 26 24 23 20 17 17
10 19 10 8 11 11 22 10 5 3 4 8 6 4 15 13 14 14 13 15 19 15 18 19 20 20 20 22 23 24 24 29 28 29 32 28 25 23 24 24 22 20 19 18 18 26 33 29 28 25 20 17 15 15
3 15 9 12 12 24 24 14 11 11 8 5 9 7 12 14 11 6 6 5 6 10 13 16 21 24 26 25 25 27 28 29 31 28 25 22 18 21 23 24 24 24 23 22 21 21 25 27 25 24 22 20 18 17
15 16 14 8 15 16 12 11 11 10 4 4 5 9 11 11 12 9 6 6 10 11 10 12 11 14 18 27 31 31 28 27 31 32 28 22 13 16 19 23 24 25 26 26 25 23 26 26 24 23 23 22 21 20
19 15 17 13 10 8 9 8 9 4 4 5 4 8 3 1 4 4 0 4 4 4 3 3 3 8 15 17 26 28 24 23 27 33 33 30 26 21 20 22 22 24 27 28 26 25 27 28 29 28 30 29 31 31
Wind_Direction_850mb
304 299 295 299 306 311 317 326 331 330 328 332 336 338 340 341 341 338 320 309 292 281 297 277 299 299 309 313 315 309 326 27 326 3 0 352 339 358 344 30 0 5 323 28 19 99 76 344 358 25 257 131 131 133
300 296 288 293 298 303 313 322 327 327 324 327 329 329 330 333 332 332 317 314 309 278 282 296 292 288 277 307 310 312 283 299 323 325 359 311 334 337 338 19 10 37 2 30 32 63 345 342 1 93 113 118 133 127
296 293 286 289 290 298 309 318 327 324 320 320 321 323 326 328 324 319 307 310 319 297 320 301 197 346 316 312 295 247 275 288 289 286 296 303 322 342 0 27 357 1 13 75 178 18 18 25 47 74 88 97 111 117
292 289 284 279 283 297 308 319 321 317 315 314 315 318 324 324 319 315 301 285 312 305 288 303 328 334 340 350 311 288 306 330 310 297 246 305 347 12 38 47 41 357 308 45 77 101 61 33 51 71 80 91 100 105
293 291 285 272 281 288 300 311 317 317 312 308 313 318 322 319 322 318 303 297 304 324 300 300 310 354 347 350 357 345 303 338 10 11 30 23 3 1 92 57 27 347 330 333 69 48 93 59 78 89 95 97 102 113
288 285 282 276 278 293 303 303 308 313 308 312 315 319 320 315 326 335 266 192 277 323 309 309 321 306 350 343 6 18 34 50 43 52 40 31 1 347 58 61 2 21 65 77 91 98 97 98 101 99 96 99 101 102
282 279 284 285 275 286 289 304 308 306 308 311 316 317 313 307 297 259 333 235 313 305 276 288 273 13 353 340 9 44 36 42 37 42 48 51 46 69 52 54 353 48 66 86 92 93 82 91 97 94 96 99 98 100
280 275 278 267 276 281 301 302 305 304 308 313 318 318 308 306 53 264 281 308 310 267 257 271 305 328 12 340 350 21 82 56 26 34 49 35 41 74 65 47 55 68 78 78 82 85 91 99 99 99 100 104 102 99
262 265 258 261 267 294 298 306 308 310 315 320 318 318 231 152 221 235 283 285 267 245 291 302 315 340 323 338 314 317 101 87 97 51 42 40 28 48 84 67 71 88 93 105 100 105 100 100 102 103 103 102 100 99
243 241 240 246 274 290 301 308 315 320 321 335 11 283 216 191 269 285 313 224 226 228 247 276 297 317 347 333 318 351 326 127 125 98 105 66 44 45 60 69 78 88 99 105 110 109 110 109 107 105 103 106 107 110
227 227 225 250 266 286 302 308 318 333 18 0 288 272 296 278 292 228 230 205 240 252 256 291 334 306 327 334 330 340 303 334 107 152 118 105 112 166 49 38 71 74 83 88 96 102 107 109 110 109 107 107 108 111
216 211 233 256 277 284 300 302 307 353 311 300 278 288 266 228 227 217 235 213 206 232 353 322 316 342 314 322 279 302 300 4 70 111 111 90 144 169 169 133 111 99 97 97 99 103 104 105 108 110 110 109 110 111
203 219 237 255 272 283 300 291 292 313 319 356 300 270 221 226 315 222 195 215 233 228 331 324 318 312 284 252 292 293 2 11 69 45 77 123 149 157 148 138 122 110 104 103 105 107 109 108 109 111 111 112 114 113
209 223 238 263 272 288 286 255 267 306 259 246 231 278 231 195 235 239 358 11 19 328 309 311 308 288 304 282 295 304 352 66 95 122 96 148 156 155 154 142 130 118 112 109 108 109 109 109 110 112 114 117 119 120
204 218 255 266 278 272 237 244 258 226 153 251 227 244 218 283 334 332 330 348 327 283 301 302 279 260 276 297 273 0 299 167 29 104 138 158 151 154 152 150 135 127 118 110 110 109 109 112 114 113 116 120 122 122
196 238 259 243 243 239 238 235 224 162 233 246 240 246 220 243 199 113 281 279 291 292 282 265 268 259 240 266 257 206 26 2 134 114 152 157 151 152 154 149 141 131 122 117 114 112 114 113 116 115 118 122 128 128
214 221 235 250 258 230 215 161 188 218 237 236 243 237 271 283 166 186 260 255 280 280 249 233 251 227 328 270 223 48 117 99 119 140 149 156 156 155 150 146 145 135 127 123 119 119 119 119 120 121 124 131 132 129
167 248 242 257 201 220 174 176 226 236 239 242 246 247 229 229 222 236 263 280 282 250 262 263 280 239 211 188 269 142 111 140 140 157 160 155 151 158 157 155 152 143 136 134 131 128 127 124 124 127 129 134 137 137
185 208 245 203 189 171 201 211 221 255 242 258 248 240 236 230 247 252 242 204 195 198 283 267 256 247 220 203 162 139 136 150 154 151 158 158 157 157 156 155 153 147 146 145 139 136 136 135 128 131 136 140 145 149
198 218 199 187 185 164 218 217 211 250 265 251 245 251 224 231 238 230 219 191 183 168 246 240 237 45 319 277 176 187 148 164 162 156 152 153 156 154 157 161 160 153 156 152 153 150 144 140 140 139 149 153 151 154
180 192 177 180 194 216 236 249 231 242 277 265 249 239 249 224 224 232 201 187 187 192 247 248 285 270 265 136 178 201 201 174 176 167 159 158 159 161 162 160 161 166 169 169 172 168 176 168 166 167 150 148 150 146
220 194 170 193 205 206 249 230 241 286 258 255 265 232 246 218 224 208 188 200 239 216 221 224 219 141 116 113 122 157 171 159 156 146 163 160 158 165 165 169 173 182 188 182 192 177 185 176 178 179 168 165 152 161
179 160 174 189 216 213 256 211 223 226 235 287 251 251 233 214 198 183 206 218 203 203 191 176 158 134 130 127 124 128 145 166 150 154 159 163 167 171 171 179 184 191 188 182 193 173 169 183 188 178 180 172 169 178
163 175 198 201 208 240 224 212 226 238 250 219 239 237 233 207 197 222 234 187 164 175 170 157 157 146 146 150 144 138 137 139 152 164 169 174 171 177 186 187 188 191 186 186 182 180 183 172 180 178 185 183 185 189
188 210 193 232 212 235 226 210 199 217 226 206 223 242 208 189 200 235 208 166 164 171 165 172 170 166 163 157 146 144 157 160 161 166 172 171 170 172 179 187 183 182 185 180 182 183 180 185 176 183 188 191 196 199
216 205 193 199 185 206 227 215 201 208 221 205 231 235 195 216 218 220 165 142 155 160 177 180 175 175 178 172 162 159 170 169 168 171 178 182 180 181 180 179 177 180 189 191 192 194 195 195 193 191 191 197 201 199
238 215 214 213 224 233 258 240 229 196 201 222 238 215 207 220 212 100 139 136 155 172 175 177 185 183 186 185 178 175 176 169 181 176 181 181 179 181 183 186 194 204 201 205 210 210 209 207 204 202 201 205 210 209
243 286 217 216 216 255 253 275 248 215 205 213 213 223 209 262 99 113 135 142 148 159 160 169 176 179 176 171 175 177 178 185 184 177 170 176 180 183 183 186 202 204 193 212 218 217 213 210 208 207 208 212 219 229
222 223 244 227 217 243 234 237 247 226 228 252 252 212 118 94 116 126 132 141 146 151 157 161 165 162 157 167 178 184 186 184 180 179 179 181 187 195 196 199 199 186 193 200 193 190 201 201 202 204 207 213 224 234
220 181 185 232 223 234 236 232 270 285 259 227 230 186 104 120 116 123 126 132 137 154 180 176 180 185 184 184 181 184 189 187 188 188 197 203 207 205 196 199 198 196 191 183 180 195 200 192 194 192 194 207 217 223
232 192 214 220 230 240 252 257 266 270 263 240 235 206 147 155 155 156 142 130 148 166 180 188 194 200 199 199 196 193 198 201 202 205 211 218 218 191 196 201 199 197 198 191 190 183 182 186 192 201 209 215 223 226
197 202 227 248 239 230 226 236 238 240 250 188 177 163 183 174 156 156 165 219 222 222 225 224 222 220 225 210 214 215 217 211 208 210 210 205 202 199 197 194 196 198 197 196 198 194 195 197 204 211 216 220 227 231
204 217 231 270 260 219 205 224 213 208 146 145 138 179 194 133 118 126 69 172 173 150 182 220 214 233 221 205 204 206 207 204 209 204 205 205 207 197 192 189 190 193 193 195 201 204 207 211 215 214 219 219 221 229